Accueil
METAR-TAF:

METAR-TAF

Aéroports :

Tajima, Japon

latitude: 35-31N, longitude: 134-48E, altitude: 210 m

Observation

Le bulletin a été fait il y a 33 minutes, à 07:00 UTC
Vent 2 kt de direction variable
Température 25°C
Humidité 94%
Pression 1011 hPa
Visibilité: 6000 m
Quelques nuages à une hauteur inférieure à 100 ft
Nuages épars à une hauteur de 400 ft
Quelques nuages à une hauteur de 2000 ft, Cumulonimbus.
Nuages fragmentés à une hauteur de 2500 ft
orage, pluie, bancs de brouillard,

METAR: RJBT 250700Z VRB02KT 6000 TSRA BCFG FEW000 SCT004 FEW020CB BKN025 25/24 Q1011

Heure: 16:33 (07:33 UTC)


TAF: absent

Observations et prévisions météorologiques de plus de 4000 aéroports (messages METAR et TAF).

Les stations disponibles sont représentées par des disques jaunes et rouges sur la carte.

Passer la souris dessus pour voir le nom de la station.

Cliquer dessus pour voir les observations et prévisions météorologiques.

Pour changer de carte: cliquez sur les boutons verts avec une croix noire pour zoomer, sur le bouton vert avec un tiret pour effectuer un zoom arrière, ou sur les flèches vertes pour les cartes adjacentes.


METAR-TAF: